Voltar ao catálogo

TITAN 3C TRANSTAGE DEB

AtivoMEO
NORAD 43456·DEBRIS·🇺🇸 United States

Lançado Feb 9, 1969 de Cape Canaveral Space Force Station

Loading…

Próximas Passagens (próximas 24 horas)

TLE

AtualizadoSource: Space-Track

Época: Sep 10, 2026, 13:06 UTC

1 43456U 69013P   26253.54590689 -.00000238  00000-0  00000-0 0  9999
2 43456   2.2044  54.5171 0794626  70.7085 298.3678  1.02657741  7609

Acompanhe TITAN 3C TRANSTAGE DEB em tempo real com AllMySat

Download on the App Store